This is the latest recevied weather packets stored in our database for station/object KO4ZGL-13. If no packets are shown the sender has not sent any weather packets the latest 10 day(s).
| Time | Temp. | Humidity | Pressure | Rain* | Wind** | Luminosity | Snow |
|---|---|---|---|---|---|---|---|
| 1787918868 | 22.78° C | 99% | 1017.5 hPa | 0 mm | - | 82 W/m² | - |
| 1787918563 | 22.22° C | 99% | 1017.3 hPa | 0 mm | - | 71 W/m² | - |
| 1787918261 | 22.22° C | 99% | 1017.6 hPa | 0 mm | - | 63 W/m² | - |
| 1787917956 | 22.22° C | 99% | 1017.4 hPa | 0 mm | - | 51 W/m² | - |
| 1787917651 | 22.22° C | 99% | 1017.5 hPa | 0 mm | - | 43 W/m² | - |
| 1787917348 | 22.22° C | 99% | 1017.3 hPa | 0 mm | - | 37 W/m² | - |
| 1787917047 | 21.67° C | 99% | 1017.2 hPa | 0 mm | - | 30 W/m² | - |
| 1787916742 | 21.67° C | 99% | 1017.2 hPa | 0 mm | - | 28 W/m² | - |
| 1787916437 | 21.67° C | 99% | 1017.4 hPa | 0 mm | - | 23 W/m² | - |
| 1787916132 | 21.67° C | 99% | 1017.5 hPa | 1.78 mm | - | 19 W/m² | - |
| 1787915827 | 21.67° C | 99% | 1017.2 hPa | 1.78 mm | - | 14 W/m² | - |
| 1787915523 | 21.67° C | 99% | 1017 hPa | 0 mm | - | 10 W/m² | - |
| 1787915216 | 21.67° C | 99% | 1017.2 hPa | 0 mm | - | 6 W/m² | - |
| 1787914916 | 21.67° C | 99% | 1017.1 hPa | 0 mm | - | 3 W/m² | - |
| 1787914615 | 21.67° C | 99% | 1017.2 hPa | 0 mm | - | 1 W/m² | - |
| 1787914309 | 21.67° C | 99% | 1017.2 hPa | 0 mm | - | 0 W/m² | - |
| 1787914004 | 21.67° C | 99% | 1016.7 hPa | 0 mm | - | 0 W/m² | - |
| 1787913703 | 21.67° C | 99% | 1016.9 hPa | 0 mm | - | 0 W/m² | - |
| 1787913398 | 21.67° C | 99% | 1016.7 hPa | 0 mm | - | 0 W/m² | - |
| 1787913092 | 21.67° C | 99% | 1016.9 hPa | 0 mm | - | 0 W/m² | - |
| 1787912790 | 21.67° C | 99% | 1016.8 hPa | 0 mm | - | 0 W/m² | - |
| 1787912481 | 21.67° C | 99% | 1016.9 hPa | 0 mm | - | 0 W/m² | - |
| 1787912180 | 22.22° C | 99% | 1016.9 hPa | 0 mm | - | 0 W/m² | - |
| 1787911875 | 22.22° C | 99% | 1016.8 hPa | 0 mm | - | 0 W/m² | - |
| 1787911574 | 22.22° C | 99% | 1016.7 hPa | 0 mm | - | 0 W/m² | - |
* Rain latest hour (hover to see other rain measurements)
** Current wind speed in m/s (hover to see current wind gust speed)